• In Russia
  • List of Countries
  • For 7 days
  • Water Temperature
  • Weather Map
  • Weather Widgets
  • user-avatar
    Login

    Hourly Weather Molepolole

    Today, 28 May, Thursday

    Time Temperature Precipitation Wind Pressure Humidity
    00:00 +8°C° 0 mm 1 mps 666 mmHg 25%
    01:00 +7°C° 0 mm 2 mps 666 mmHg 26%
    02:00 +6°C° 0 mm 2 mps 666 mmHg 26%
    03:00 +7°C° 0 mm 1 mps 666 mmHg 28%
    04:00 +6°C° 0 mm 1 mps 666 mmHg 29%
    05:00 +6°C° 0 mm 1 mps 665 mmHg 30%
    06:00 +7°C° 0 mm 1 mps 666 mmHg 29%
    07:00 +8°C° 0 mm 1 mps 666 mmHg 27%
    08:00 +9°C° 0 mm 1 mps 667 mmHg 25%
    09:00 +11°C° 0 mm 1 mps 668 mmHg 22%
    10:00 +14°C° 0 mm 1 mps 668 mmHg 18%
    11:00 +18°C° 0 mm 1 mps 669 mmHg 14%
    12:00 +19°C° 0 mm 1 mps 668 mmHg 13%
    13:00 +20°C° 0 mm 1 mps 668 mmHg 11%
    14:00 +20°C° 0 mm 0 mps 667 mmHg 9%
    15:00 +21°C° 0 mm 1 mps 667 mmHg 10%
    16:00 +21°C° 0 mm 1 mps 667 mmHg 11%
    17:00 +20°C° 0 mm 1 mps 666 mmHg 12%
    18:00 +16°C° 0 mm 1 mps 666 mmHg 13%
    19:00 +14°C° 0 mm 1 mps 665 mmHg 15%
    20:00 +12°C° 0 mm 1 mps 665 mmHg 17%
    21:00 +11°C° 0 mm 1 mps 665 mmHg 17%
    22:00 +11°C° 0 mm 1 mps 665 mmHg 17%
    23:00 +11°C° 0 mm 1 mps 666 mmHg 17%

    Tomorrow, 29 May, Friday

    Time Temperature Precipitation Wind Pressure Humidity
    00:00 +11°C° 0 mm 1 mps 665 mmHg 17%
    01:00 +10°C° 0 mm 1 mps 665 mmHg 17%
    02:00 +10°C° 0 mm 1 mps 664 mmHg 17%
    03:00 +10°C° 0 mm 1 mps 664 mmHg 18%
    04:00 +9°C° 0 mm 1 mps 665 mmHg 18%
    05:00 +9°C° 0 mm 1 mps 665 mmHg 19%
    06:00 +10°C° 0 mm 1 mps 665 mmHg 18%
    07:00 +11°C° 0 mm 1 mps 666 mmHg 18%
    08:00 +12°C° 0 mm 1 mps 666 mmHg 18%
    09:00 +15°C° 0 mm 1 mps 667 mmHg 15%
    10:00 +19°C° 0 mm 1 mps 668 mmHg 13%
    11:00 +20°C° 0 mm 2 mps 668 mmHg 10%
    12:00 +21°C° 0 mm 2 mps 668 mmHg 10%
    13:00 +24°C° 0 mm 2 mps 667 mmHg 10%
    14:00 +25°C° 0 mm 2 mps 667 mmHg 10%
    15:00 +24°C° 0 mm 1 mps 667 mmHg 12%
    16:00 +23°C° 0 mm 1 mps 666 mmHg 14%
    17:00 +22°C° 0 mm 1 mps 666 mmHg 16%
    18:00 +20°C° 0 mm 1 mps 666 mmHg 19%
    19:00 +18°C° 0 mm 1 mps 666 mmHg 21%
    20:00 +15°C° 0 mm 1 mps 666 mmHg 24%
    21:00 +14°C° 0 mm 1 mps 666 mmHg 26%
    22:00 +14°C° 0 mm 2 mps 666 mmHg 27%
    23:00 +14°C° 0 mm 2 mps 666 mmHg 29%

    Day after tomorrow, 30 May, Saturday

    Time Temperature Precipitation Wind Pressure Humidity
    00:00 +13°C° 0 mm 2 mps 666 mmHg 30%
    01:00 +13°C° 0 mm 2 mps 666 mmHg 32%
    02:00 +12°C° 0 mm 2 mps 666 mmHg 34%
    03:00 +12°C° 0 mm 2 mps 666 mmHg 36%
    04:00 +10°C° 0 mm 2 mps 666 mmHg 38%
    05:00 +10°C° 0 mm 2 mps 666 mmHg 40%
    06:00 +10°C° 0 mm 2 mps 666 mmHg 39%
    07:00 +12°C° 0 mm 2 mps 667 mmHg 38%
    08:00 +13°C° 0 mm 2 mps 668 mmHg 37%
    09:00 +16°C° 0 mm 3 mps 668 mmHg 31%
    10:00 +19°C° 0 mm 4 mps 669 mmHg 26%
    11:00 +22°C° 0 mm 4 mps 670 mmHg 21%
    12:00 +23°C° 0 mm 4 mps 670 mmHg 19%
    13:00 +25°C° 0 mm 4 mps 669 mmHg 17%
    14:00 +26°C° 0 mm 3 mps 668 mmHg 16%
    15:00 +25°C° 0 mm 3 mps 668 mmHg 16%
    16:00 +24°C° 0 mm 3 mps 668 mmHg 17%
    17:00 +24°C° 0 mm 2 mps 668 mmHg 18%
    18:00 +20°C° 0 mm 2 mps 668 mmHg 20%
    19:00 +18°C° 0 mm 2 mps 668 mmHg 23%
    20:00 +16°C° 0 mm 2 mps 668 mmHg 26%
    21:00 +16°C° 0 mm 2 mps 668 mmHg 26%
    22:00 +15°C° 0 mm 2 mps 668 mmHg 27%
    23:00 +14°C° 0 mm 2 mps 668 mmHg 28%

    31 May, Sunday

    Time Temperature Precipitation Wind Pressure Humidity
    00:00 +13°C° 0 mm 2 mps 668 mmHg 30%
    01:00 +13°C° 0 mm 2 mps 668 mmHg 33%
    02:00 +12°C° 0 mm 2 mps 668 mmHg 36%
    03:00 +12°C° 0 mm 2 mps 668 mmHg 38%
    04:00 +10°C° 0 mm 2 mps 668 mmHg 41%
    05:00 +9°C° 0 mm 2 mps 668 mmHg 44%
    06:00 +10°C° 0 mm 2 mps 668 mmHg 46%
    07:00 +12°C° 0 mm 2 mps 669 mmHg 47%
    08:00 +12°C° 0 mm 2 mps 669 mmHg 49%
    09:00 +14°C° 0 mm 3 mps 670 mmHg 44%
    10:00 +18°C° 0 mm 3 mps 671 mmHg 40%
    11:00 +21°C° 0 mm 4 mps 671 mmHg 35%
    12:00 +22°C° 0 mm 4 mps 671 mmHg 31%
    13:00 +23°C° 0 mm 4 mps 671 mmHg 27%
    14:00 +26°C° 0 mm 4 mps 670 mmHg 23%
    15:00 +25°C° 0 mm 3 mps 670 mmHg 24%
    16:00 +24°C° 0 mm 3 mps 670 mmHg 25%
    17:00 +24°C° 0 mm 2 mps 669 mmHg 26%
    18:00 +20°C° 0 mm 2 mps 669 mmHg 31%
    19:00 +18°C° 0 mm 2 mps 669 mmHg 35%
    20:00 +16°C° 0 mm 2 mps 669 mmHg 40%
    21:00 +15°C° 0 mm 2 mps 669 mmHg 43%
    22:00 +15°C° 0 mm 1 mps 669 mmHg 46%
    23:00 +14°C° 0 mm 1 mps 669 mmHg 49%

    1 June, Monday

    Time Temperature Precipitation Wind Pressure Humidity
    00:00 +13°C° 0 mm 1 mps 669 mmHg 51%
    01:00 +13°C° 0 mm 1 mps 669 mmHg 53%
    02:00 +13°C° 0 mm 1 mps 669 mmHg 55%
    03:00 +12°C° 0 mm 1 mps 669 mmHg 57%
    04:00 +12°C° 0 mm 1 mps 669 mmHg 59%
    05:00 +11°C° 0 mm 1 mps 669 mmHg 60%
    06:00 +12°C° 0 mm 1 mps 669 mmHg 57%
    07:00 +13°C° 0 mm 1 mps 670 mmHg 55%
    08:00 +14°C° 0 mm 1 mps 670 mmHg 52%
    09:00 +16°C° 0 mm 2 mps 671 mmHg 45%
    10:00 +19°C° 0 mm 2 mps 671 mmHg 38%
    11:00 +21°C° 0 mm 2 mps 672 mmHg 31%
    12:00 +24°C° 0 mm 2 mps 671 mmHg 27%
    13:00 +25°C° 0 mm 2 mps 671 mmHg 23%
    14:00 +26°C° 0 mm 2 mps 670 mmHg 20%
    15:00 +25°C° 0 mm 2 mps 670 mmHg 21%
    16:00 +24°C° 0 mm 2 mps 669 mmHg 22%
    17:00 +24°C° 0 mm 2 mps 669 mmHg 23%
    18:00 +21°C° 0 mm 2 mps 669 mmHg 27%
    19:00 +19°C° 0 mm 1 mps 669 mmHg 32%
    20:00 +16°C° 0 mm 1 mps 669 mmHg 37%
    21:00 +15°C° 0 mm 1 mps 668 mmHg 40%
    22:00 +15°C° 0 mm 1 mps 668 mmHg 43%
    23:00 +13°C° 0 mm 0 mps 668 mmHg 46%

    2 June, Tuesday

    Time Temperature Precipitation Wind Pressure Humidity
    00:00 +14°C° 0 mm 1 mps 668 mmHg 47%
    01:00 +13°C° 0 mm 1 mps 668 mmHg 49%
    02:00 +13°C° 0 mm 1 mps 668 mmHg 50%
    03:00 +12°C° 0 mm 1 mps 668 mmHg 50%
    04:00 +12°C° 0 mm 1 mps 668 mmHg 50%
    05:00 +12°C° 0 mm 1 mps 668 mmHg 49%
    06:00 +13°C° 0 mm 1 mps 668 mmHg 47%
    07:00 +13°C° 0 mm 1 mps 669 mmHg 44%
    08:00 +14°C° 0 mm 1 mps 670 mmHg 41%
    09:00 +17°C° 0 mm 2 mps 670 mmHg 35%
    10:00 +20°C° 0 mm 2 mps 670 mmHg 29%
    11:00 +23°C° 0 mm 2 mps 671 mmHg 23%
    12:00 +24°C° 0 mm 2 mps 670 mmHg 21%
    13:00 +26°C° 0 mm 3 mps 670 mmHg 19%
    14:00 +27°C° 0 mm 3 mps 669 mmHg 17%
    15:00 +26°C° 0 mm 2 mps 669 mmHg 19%
    16:00 +25°C° 0 mm 2 mps 668 mmHg 20%
    17:00 +24°C° 0 mm 2 mps 668 mmHg 21%
    18:00 +21°C° 0 mm 2 mps 668 mmHg 25%
    19:00 +19°C° 0 mm 2 mps 668 mmHg 29%
    20:00 +17°C° 0 mm 2 mps 667 mmHg 34%
    21:00 +16°C° 0 mm 1 mps 667 mmHg 37%
    22:00 +16°C° 0 mm 1 mps 667 mmHg 40%
    23:00 +15°C° 0 mm 1 mps 667 mmHg 43%
    Show more